Time,TemperatureF,DewpointF,PressureIn,WindDirection,WindDirectionDegrees,WindSpeedMPH,WindSpeedGustMPH,Humidity,HourlyPrecipIn,Conditions,Clouds,dailyrainin,SoftwareType,DateUTC
2013-07-16 00:04:00,60.1,52.5,29.69,NNW,338,2.3,2.3,76,0.00,CLR,,0.00,WeatherDisplay:10.37,2013-07-15 23:04:00,
2013-07-16 00:09:00,60.1,52.5,29.69,South,180,1.2,1.2,76,0.00,CLR,,0.00,WeatherDisplay:10.37,2013-07-15 23:09:00,
2013-07-16 00:15:00,60.1,52.5,29.69,West,270,6.5,6.5,76,0.00,CLR,,0.00,WeatherDisplay:10.37,2013-07-15 23:15:00,
2013-07-16 00:20:00,60.1,52.5,29.69,SSW,202,2.3,3.1,76,0.00,CLR,,0.00,WeatherDisplay:10.37,2013-07-15 23:20:00,
2013-07-16 00:25:00,60.1,52.5,29.69,SW,225,5.8,6.0,76,0.00,CLR,,0.00,WeatherDisplay:10.37,2013-07-15 23:25:00,
2013-07-16 00:30:00,60.1,52.5,29.69,SW,225,3.5,3.5,76,0.00,CLR,,0.00,WeatherDisplay:10.37,2013-07-15 23:30:00,
2013-07-16 00:36:00,60.1,52.5,29.69,West,270,3.5,3.5,76,0.00,CLR,,0.00,WeatherDisplay:10.37,2013-07-15 23:36:00,
2013-07-16 00:41:00,59.9,52.3,29.69,SW,225,4.6,5.1,76,0.00,CLR,,0.00,WeatherDisplay:10.37,2013-07-15 23:41:00,
2013-07-16 00:46:00,59.9,52.3,29.69,SW,225,0.0,2.3,76,0.00,CLR,,0.00,WeatherDisplay:10.37,2013-07-15 23:46:00,
2013-07-16 00:51:00,59.9,52.3,29.70,West,270,3.5,3.5,76,0.00,CLR,,0.00,WeatherDisplay:10.37,2013-07-15 23:51:00,
2013-07-16 00:56:00,59.9,52.3,29.70,WSW,248,2.3,2.9,76,0.00,CLR,,0.00,WeatherDisplay:10.37,2013-07-15 23:56:00,
2013-07-16 01:01:00,59.9,52.3,29.70,SSW,202,3.5,3.5,76,0.00,CLR,,0.00,WeatherDisplay:10.37,2013-07-16 00:01:00,
2013-07-16 01:06:00,59.9,52.3,29.70,SSW,202,3.5,3.5,76,0.00,CLR,,0.00,WeatherDisplay:10.37,2013-07-16 00:06:00,
2013-07-16 01:12:00,59.9,52.7,29.70,SW,225,3.5,3.5,77,0.00,CLR,,0.00,WeatherDisplay:10.37,2013-07-16 00:12:00,
2013-07-16 01:17:00,59.9,52.7,29.69,West,270,3.5,3.5,77,0.00,CLR,,0.00,WeatherDisplay:10.37,2013-07-16 00:17:00,
2013-07-16 01:22:00,59.9,52.7,29.69,West,270,3.5,3.5,77,0.00,CLR,,0.00,WeatherDisplay:10.37,2013-07-16 00:22:00,
2013-07-16 01:27:00,59.9,52.7,29.69,WSW,248,3.5,3.5,77,0.00,CLR,,0.00,WeatherDisplay:10.37,2013-07-16 00:27:00,
2013-07-16 01:32:00,59.9,52.7,29.69,WSW,248,2.3,2.9,77,0.00,CLR,,0.00,WeatherDisplay:10.37,2013-07-16 00:32:00,
2013-07-16 01:37:00,59.7,52.8,29.70,SSW,202,3.5,3.5,78,0.00,CLR,,0.00,WeatherDisplay:10.37,2013-07-16 00:37:00,
2013-07-16 01:43:00,59.7,52.8,29.69,SSW,202,1.2,2.5,78,0.00,CLR,,0.00,WeatherDisplay:10.37,2013-07-16 00:43:00,
2013-07-16 01:48:00,59.7,52.8,29.69,West,270,4.6,4.6,78,0.00,CLR,,0.00,WeatherDisplay:10.37,2013-07-16 00:48:00,
2013-07-16 01:53:00,59.7,52.8,29.69,WSW,248,3.5,3.5,78,0.00,CLR,,0.00,WeatherDisplay:10.37,2013-07-16 00:53:00,
2013-07-16 01:58:00,59.5,52.7,29.69,SSW,202,1.2,2.2,78,0.00,CLR,,0.00,WeatherDisplay:10.37,2013-07-16 00:58:00,
2013-07-16 02:03:00,59.5,52.7,29.69,South,180,3.5,3.5,78,0.00,CLR,,0.00,WeatherDisplay:10.37,2013-07-16 01:03:00,
2013-07-16 02:08:00,59.5,52.7,29.69,South,180,3.5,3.5,78,0.00,CLR,,0.00,WeatherDisplay:10.37,2013-07-16 01:08:00,
2013-07-16 02:14:00,59.5,52.7,29.69,SW,225,6.7,6.7,78,0.00,CLR,,0.00,WeatherDisplay:10.37,2013-07-16 01:14:00,
2013-07-16 02:20:00,59.5,53.0,29.69,WSW,248,2.3,5.1,79,0.00,CLR,,0.00,WeatherDisplay:10.37,2013-07-16 01:20:00,
2013-07-16 02:25:00,59.5,53.0,29.69,WSW,248,2.3,5.1,79,0.00,CLR,,0.00,WeatherDisplay:10.37,2013-07-16 01:25:00,
2013-07-16 02:30:00,59.5,53.0,29.69,WSW,248,4.6,4.6,79,0.00,CLR,,0.00,WeatherDisplay:10.37,2013-07-16 01:30:00,
2013-07-16 02:35:00,59.5,53.0,29.69,WSW,248,5.8,5.8,79,0.00,CLR,,0.00,WeatherDisplay:10.37,2013-07-16 01:35:00,
2013-07-16 02:41:00,59.5,53.4,29.68,ESE,112,5.8,5.8,80,0.00,CLR,,0.00,WeatherDisplay:10.37,2013-07-16 01:41:00,
2013-07-16 02:46:00,59.5,53.4,29.68,ESE,112,0.0,2.9,80,0.00,CLR,,0.00,WeatherDisplay:10.37,2013-07-16 01:46:00,
2013-07-16 02:51:00,59.4,53.2,29.68,SW,225,3.5,3.5,80,0.00,CLR,,0.00,WeatherDisplay:10.37,2013-07-16 01:51:00,
2013-07-16 02:56:00,59.4,53.2,29.68,WSW,248,3.5,3.7,80,0.00,CLR,,0.00,WeatherDisplay:10.37,2013-07-16 01:56:00,
2013-07-16 03:01:00,59.4,53.2,29.68,SSW,202,1.2,1.2,80,0.00,CLR,,0.00,WeatherDisplay:10.37,2013-07-16 02:01:00,
2013-07-16 03:06:00,59.4,53.2,29.68,SSW,202,1.2,1.2,80,0.00,CLR,,0.00,WeatherDisplay:10.37,2013-07-16 02:06:00,
2013-07-16 03:11:00,59.4,53.2,29.69,WSW,248,2.3,2.3,80,0.00,CLR,,0.00,WeatherDisplay:10.37,2013-07-16 02:11:00,
2013-07-16 03:16:00,59.4,53.2,29.69,SW,225,2.3,2.3,80,0.00,CLR,,0.00,WeatherDisplay:10.37,2013-07-16 02:16:00,
2013-07-16 03:22:00,59.4,53.2,29.69,SW,225,4.6,4.6,80,0.00,CLR,,0.00,WeatherDisplay:10.37,2013-07-16 02:22:00,
2013-07-16 03:27:00,59.4,53.2,29.69,SSW,202,1.2,2.7,80,0.00,CLR,,0.00,WeatherDisplay:10.37,2013-07-16 02:27:00,
2013-07-16 03:34:00,59.4,53.2,29.69,SW,225,1.2,1.2,80,0.00,CLR,,0.00,WeatherDisplay:10.37,2013-07-16 02:34:00,
2013-07-16 03:39:00,59.4,53.2,29.69,South,180,2.3,2.3,80,0.00,CLR,,0.00,WeatherDisplay:10.37,2013-07-16 02:39:00,
2013-07-16 03:44:00,59.4,53.2,29.69,South,180,2.3,2.3,80,0.00,CLR,,0.00,WeatherDisplay:10.37,2013-07-16 02:44:00,
2013-07-16 03:49:00,59.4,53.5,29.69,WSW,248,3.5,3.5,81,0.00,CLR,,0.00,WeatherDisplay:10.37,2013-07-16 02:49:00,
2013-07-16 03:54:00,59.4,53.5,29.69,WSW,248,3.5,3.5,81,0.00,CLR,,0.00,WeatherDisplay:10.37,2013-07-16 02:54:00,
2013-07-16 03:59:00,59.4,53.5,29.68,SW,225,6.9,6.9,81,0.00,CLR,,0.00,WeatherDisplay:10.37,2013-07-16 02:59:00,
2013-07-16 04:04:00,59.4,53.5,29.68,SW,225,6.9,6.9,81,0.00,CLR,,0.00,WeatherDisplay:10.37,2013-07-16 03:04:00,
2013-07-16 04:09:00,59.4,53.5,29.68,NW,315,6.9,6.9,81,0.00,CLR,,0.00,WeatherDisplay:10.37,2013-07-16 03:09:00,
2013-07-16 04:15:00,59.4,53.5,29.68,NW,315,2.3,4.1,81,0.00,CLR,,0.00,WeatherDisplay:10.37,2013-07-16 03:15:00,
2013-07-16 04:20:00,59.4,53.5,29.68,SW,225,6.0,6.0,81,0.00,CLR,,0.00,WeatherDisplay:10.37,2013-07-16 03:20:00,
2013-07-16 04:25:00,59.4,53.5,29.68,SW,225,5.8,5.8,81,0.00,CLR,,0.00,WeatherDisplay:10.37,2013-07-16 03:25:00,
2013-07-16 04:30:00,59.4,53.5,29.68,West,270,5.1,5.1,81,0.00,CLR,,0.00,WeatherDisplay:10.37,2013-07-16 03:30:00,
2013-07-16 04:37:00,59.2,53.4,29.68,WSW,248,4.7,5.0,81,0.00,CLR,,0.00,WeatherDisplay:10.37,2013-07-16 03:37:00,
2013-07-16 04:42:00,59.2,53.7,29.68,SE,135,4.6,4.6,82,0.00,CLR,,0.00,WeatherDisplay:10.37,2013-07-16 03:42:00,
2013-07-16 04:47:00,59.0,53.5,29.68,WSW,248,3.5,3.5,82,0.00,CLR,,0.00,WeatherDisplay:10.37,2013-07-16 03:47:00,
2013-07-16 04:53:00,59.0,53.5,29.68,WSW,248,3.5,3.5,82,0.00,CLR,,0.00,WeatherDisplay:10.37,2013-07-16 03:53:00,
2013-07-16 04:58:00,58.8,53.7,29.68,SSW,202,5.8,5.8,83,0.00,CLR,,0.00,WeatherDisplay:10.37,2013-07-16 03:58:00,
2013-07-16 05:01:00,58.8,53.7,29.68,SSW,202,2.3,4.4,83,0.00,CLR,,0.00,WeatherDisplay:10.37,2013-07-16 04:01:00,
2013-07-16 05:06:00,58.8,53.7,29.68,SSW,202,2.3,4.4,83,0.00,CLR,,0.00,WeatherDisplay:10.37,2013-07-16 04:06:00,
2013-07-16 05:11:00,58.6,53.8,29.68,SW,225,7.4,7.4,84,0.00,CLR,,0.00,WeatherDisplay:10.37,2013-07-16 04:11:00,
2013-07-16 05:16:00,58.6,53.8,29.68,SW,225,6.9,6.9,84,0.00,CLR,,0.00,WeatherDisplay:10.37,2013-07-16 04:16:00,
2013-07-16 05:21:00,58.6,53.8,29.68,SSW,202,4.6,7.1,84,0.00,CLR,,0.00,WeatherDisplay:10.37,2013-07-16 04:21:00,
2013-07-16 05:26:00,58.6,53.8,29.68,WSW,248,4.6,4.6,84,0.00,CLR,,0.00,WeatherDisplay:10.37,2013-07-16 04:26:00,
2013-07-16 05:31:00,58.6,54.1,29.68,SW,225,0.0,0.5,85,0.00,CLR,,0.00,WeatherDisplay:10.37,2013-07-16 04:31:00,
2013-07-16 05:36:00,58.6,54.1,29.68,ESE,112,0.0,0.0,85,0.00,CLR,,0.00,WeatherDisplay:10.37,2013-07-16 04:36:00,
2013-07-16 05:41:00,58.6,54.5,29.69,WSW,248,1.2,1.2,86,0.00,CLR,,0.00,WeatherDisplay:10.37,2013-07-16 04:41:00,
2013-07-16 05:46:00,58.6,54.5,29.69,WSW,248,0.0,1.0,86,0.00,CLR,,0.00,WeatherDisplay:10.37,2013-07-16 04:46:00,
2013-07-16 05:51:00,58.6,54.5,29.69,South,180,1.2,1.2,86,0.00,CLR,,0.00,WeatherDisplay:10.37,2013-07-16 04:51:00,
2013-07-16 05:56:00,58.6,54.5,29.69,SW,225,5.8,5.8,86,0.00,CLR,,0.00,WeatherDisplay:10.37,2013-07-16 04:56:00,
2013-07-16 06:01:00,58.6,54.5,29.69,SSE,158,0.0,2.6,86,0.00,CLR,,0.00,WeatherDisplay:10.37,2013-07-16 05:01:00,
2013-07-16 06:06:00,58.6,54.5,29.69,SSE,158,0.0,2.6,86,0.00,CLR,,0.00,WeatherDisplay:10.37,2013-07-16 05:06:00,
2013-07-16 06:11:00,58.8,55.0,29.69,SE,135,3.5,4.0,87,0.00,CLR,,0.00,WeatherDisplay:10.37,2013-07-16 05:11:00,
2013-07-16 06:16:00,58.8,55.0,29.69,SE,135,1.2,4.0,87,0.00,CLR,,0.00,WeatherDisplay:10.37,2013-07-16 05:16:00,
2013-07-16 06:21:00,58.8,55.0,29.69,West,270,2.5,2.5,87,0.00,CLR,,0.00,WeatherDisplay:10.37,2013-07-16 05:21:00,
2013-07-16 06:26:00,58.8,55.0,29.69,West,270,2.3,2.3,87,0.00,CLR,,0.00,WeatherDisplay:10.37,2013-07-16 05:26:00,
2013-07-16 06:31:00,58.8,55.0,29.69,SW,225,4.6,4.6,87,0.00,CLR,,0.00,WeatherDisplay:10.37,2013-07-16 05:31:00,
2013-07-16 06:36:00,58.8,55.0,29.69,SW,225,1.2,2.6,87,0.00,CLR,,0.00,WeatherDisplay:10.37,2013-07-16 05:36:00,
2013-07-16 06:41:00,59.2,55.3,29.69,WSW,248,2.3,2.3,87,0.00,CLR,,0.00,WeatherDisplay:10.37,2013-07-16 05:41:00,
2013-07-16 06:46:00,59.2,55.3,29.69,SW,225,2.3,2.3,87,0.00,CLR,,0.00,WeatherDisplay:10.37,2013-07-16 05:46:00,
2013-07-16 06:51:00,59.2,55.3,29.69,SW,225,0.7,0.0,87,0.00,CLR,,0.00,WeatherDisplay:10.37,2013-07-16 05:51:00,
2013-07-16 06:56:00,59.2,55.3,29.69,SW,225,1.2,0.0,87,0.00,CLR,,0.00,WeatherDisplay:10.37,2013-07-16 05:56:00,
2013-07-16 07:01:00,59.2,55.6,29.69,South,180,3.5,3.5,88,0.00,CLR,,0.00,WeatherDisplay:10.37,2013-07-16 06:01:00,
2013-07-16 07:06:00,59.2,55.6,29.69,South,180,1.2,2.1,88,0.00,CLR,,0.00,WeatherDisplay:10.37,2013-07-16 06:06:00,
2013-07-16 07:11:00,59.4,55.8,29.69,WSW,248,4.2,4.2,88,0.00,CLR,,0.00,WeatherDisplay:10.37,2013-07-16 06:11:00,
2013-07-16 07:16:00,59.4,55.8,29.69,WSW,248,4.6,4.6,88,0.00,CLR,,0.00,WeatherDisplay:10.37,2013-07-16 06:16:00,
2013-07-16 07:21:00,59.5,56.0,29.70,SW,225,4.6,4.6,88,0.00,CLR,,0.00,WeatherDisplay:10.37,2013-07-16 06:21:00,
2013-07-16 07:26:00,59.5,56.0,29.70,SW,225,3.5,4.0,88,0.00,CLR,,0.00,WeatherDisplay:10.37,2013-07-16 06:26:00,
2013-07-16 07:31:00,59.7,55.8,29.70,SW,225,4.6,4.6,87,0.00,CLR,,0.00,WeatherDisplay:10.37,2013-07-16 06:31:00,
2013-07-16 07:36:00,59.7,55.8,29.70,SW,225,1.2,3.2,87,0.00,CLR,,0.00,WeatherDisplay:10.37,2013-07-16 06:36:00,
2013-07-16 07:41:00,59.7,55.8,29.70,SW,225,1.2,3.2,87,0.00,CLR,,0.00,WeatherDisplay:10.37,2013-07-16 06:41:00,
2013-07-16 07:46:00,59.7,55.8,29.70,SW,225,1.2,3.2,87,0.00,CLR,,0.00,WeatherDisplay:10.37,2013-07-16 06:46:00,
2013-07-16 07:51:00,59.9,56.0,29.70,WSW,248,2.3,2.3,87,0.00,CLR,,0.00,WeatherDisplay:10.37,2013-07-16 06:51:00,
2013-07-16 07:56:00,60.1,56.2,29.70,SSW,202,3.5,3.5,87,0.00,CLR,,0.00,WeatherDisplay:10.37,2013-07-16 06:56:00,
2013-07-16 08:01:00,60.1,56.2,29.70,SSW,202,4.6,4.6,87,0.00,CLR,,0.00,WeatherDisplay:10.37,2013-07-16 07:01:00,
2013-07-16 08:06:00,60.1,56.2,29.70,SSW,202,3.5,4.1,87,0.00,CLR,,0.00,WeatherDisplay:10.37,2013-07-16 07:06:00,
2013-07-16 08:11:00,60.1,56.2,29.70,West,270,3.5,3.5,87,0.00,CLR,,0.00,WeatherDisplay:10.37,2013-07-16 07:11:00,
2013-07-16 08:16:00,60.1,56.2,29.70,SSW,202,3.5,3.5,87,0.00,CLR,,0.00,WeatherDisplay:10.37,2013-07-16 07:16:00,
2013-07-16 08:21:00,60.4,56.6,29.70,WSW,248,8.1,8.1,87,0.00,CLR,,0.00,WeatherDisplay:10.37,2013-07-16 07:21:00,
2013-07-16 08:26:00,60.4,56.6,29.70,SW,225,3.5,4.3,87,0.00,CLR,,0.00,WeatherDisplay:10.37,2013-07-16 07:26:00,
2013-07-16 08:31:00,60.4,56.6,29.70,SW,225,2.3,2.3,87,0.00,CLR,,0.00,WeatherDisplay:10.37,2013-07-16 07:31:00,
2013-07-16 08:36:00,60.4,56.6,29.70,SW,225,10.4,10.4,87,0.00,CLR,,0.00,WeatherDisplay:10.37,2013-07-16 07:36:00,
2013-07-16 08:41:00,60.6,56.7,29.70,East,90,10.4,10.4,87,0.00,CLR,,0.00,WeatherDisplay:10.37,2013-07-16 07:41:00,
2013-07-16 08:46:00,60.6,57.0,29.71,WSW,248,5.8,5.8,88,0.00,CLR,,0.00,WeatherDisplay:10.37,2013-07-16 07:46:00,
2013-07-16 08:51:00,60.6,57.0,29.70,SW,225,5.8,5.9,88,0.00,CLR,,0.00,WeatherDisplay:10.37,2013-07-16 07:51:00,
2013-07-16 08:56:00,60.6,57.0,29.71,SSW,202,6.9,6.9,88,0.00,CLR,,0.00,WeatherDisplay:10.37,2013-07-16 07:56:00,
2013-07-16 09:01:00,60.8,57.2,29.71,WSW,248,3.5,5.1,88,0.00,CLR,,0.00,WeatherDisplay:10.37,2013-07-16 08:01:00,
2013-07-16 09:06:00,61.0,57.4,29.71,SSW,202,2.3,2.3,88,0.00,CLR,,0.00,WeatherDisplay:10.37,2013-07-16 08:06:00,
2013-07-16 09:11:00,61.0,57.4,29.71,SW,225,5.8,5.8,88,0.00,CLR,,0.00,WeatherDisplay:10.37,2013-07-16 08:11:00,
2013-07-16 09:16:00,61.0,57.4,29.71,WSW,248,6.9,6.9,88,0.00,CLR,,0.00,WeatherDisplay:10.37,2013-07-16 08:16:00,
2013-07-16 09:21:00,61.2,57.3,29.71,South,180,6.9,6.9,87,0.00,CLR,,0.00,WeatherDisplay:10.37,2013-07-16 08:21:00,
2013-07-16 09:26:00,61.2,57.3,29.71,South,180,3.5,4.6,87,0.00,CLR,,0.00,WeatherDisplay:10.37,2013-07-16 08:26:00,
2013-07-16 09:31:00,61.2,57.3,29.71,SSW,202,4.6,4.6,87,0.00,CLR,,0.00,WeatherDisplay:10.37,2013-07-16 08:31:00,
2013-07-16 09:36:00,61.2,57.3,29.71,SSW,202,3.5,4.1,87,0.00,CLR,,0.00,WeatherDisplay:10.37,2013-07-16 08:36:00,
2013-07-16 09:41:00,61.2,57.3,29.71,South,180,6.0,6.0,87,0.00,CLR,,0.00,WeatherDisplay:10.37,2013-07-16 08:41:00,
2013-07-16 09:46:00,61.2,57.3,29.71,South,180,5.8,5.8,87,0.00,CLR,,0.00,WeatherDisplay:10.37,2013-07-16 08:46:00,
2013-07-16 09:51:00,61.5,57.6,29.71,SW,225,5.8,5.8,87,0.00,CLR,,0.00,WeatherDisplay:10.37,2013-07-16 08:51:00,
2013-07-16 09:56:00,61.5,57.6,29.71,SSW,202,3.5,3.5,87,0.00,CLR,,0.00,WeatherDisplay:10.37,2013-07-16 08:56:00,
2013-07-16 10:01:00,61.7,57.8,29.71,WSW,248,4.6,4.6,87,0.00,CLR,,0.00,WeatherDisplay:10.37,2013-07-16 09:01:00,
2013-07-16 10:06:00,61.7,57.8,29.71,SSW,202,3.5,3.5,87,0.00,CLR,,0.00,WeatherDisplay:10.37,2013-07-16 09:06:00,
2013-07-16 10:11:00,61.7,57.8,29.71,NW,315,3.5,3.5,87,0.00,CLR,,0.00,WeatherDisplay:10.37,2013-07-16 09:11:00,
2013-07-16 10:16:00,62.2,58.3,29.71,West,270,3.5,3.5,87,0.00,CLR,,0.00,WeatherDisplay:10.37,2013-07-16 09:16:00,
2013-07-16 10:21:00,62.4,58.2,29.71,SE,135,3.5,3.5,86,0.00,CLR,,0.00,WeatherDisplay:10.37,2013-07-16 09:21:00,
2013-07-16 10:26:00,62.4,58.2,29.71,WNW,292,3.5,3.5,86,0.00,CLR,,0.00,WeatherDisplay:10.37,2013-07-16 09:26:00,
2013-07-16 10:31:00,62.8,58.5,29.71,SSW,202,9.2,9.2,86,0.00,CLR,,0.00,WeatherDisplay:10.37,2013-07-16 09:31:00,
2013-07-16 10:36:00,63.1,58.9,29.71,SSE,158,9.2,9.2,86,0.00,CLR,,0.00,WeatherDisplay:10.37,2013-07-16 09:36:00,
2013-07-16 10:41:00,63.1,58.9,29.71,SSE,158,3.5,8.2,86,0.00,CLR,,0.00,WeatherDisplay:10.37,2013-07-16 09:41:00,
2013-07-16 10:46:00,64.0,59.4,29.71,WSW,248,3.5,3.5,85,0.00,CLR,,0.00,WeatherDisplay:10.37,2013-07-16 09:46:00,
2013-07-16 10:51:00,64.2,59.6,29.71,SW,225,3.5,3.7,85,0.00,CLR,,0.00,WeatherDisplay:10.37,2013-07-16 09:51:00,
2013-07-16 10:56:00,64.6,59.3,29.71,South,180,3.5,3.9,83,0.00,CLR,,0.00,WeatherDisplay:10.37,2013-07-16 09:56:00,
2013-07-16 11:01:00,64.6,59.3,29.71,SW,225,3.5,3.5,83,0.00,CLR,,0.00,WeatherDisplay:10.37,2013-07-16 10:01:00,
2013-07-16 11:06:00,65.3,60.0,29.71,WSW,248,5.6,5.6,83,0.00,CLR,,0.00,WeatherDisplay:10.37,2013-07-16 10:06:00,
2013-07-16 11:11:00,65.8,60.2,29.71,SSE,158,5.8,5.8,82,0.00,CLR,,0.00,WeatherDisplay:10.37,2013-07-16 10:11:00,
2013-07-16 11:16:00,65.8,60.2,29.71,SSE,158,1.2,3.9,82,0.00,CLR,,0.00,WeatherDisplay:10.37,2013-07-16 10:16:00,
2013-07-16 11:21:00,66.0,60.4,29.71,WSW,248,1.2,1.3,82,0.00,CLR,,0.00,WeatherDisplay:10.37,2013-07-16 10:21:00,
2013-07-16 11:26:00,66.0,60.4,29.71,WSW,248,1.2,1.3,82,0.00,CLR,,0.00,WeatherDisplay:10.37,2013-07-16 10:26:00,
2013-07-16 11:31:00,66.4,60.0,29.71,SSW,202,8.9,8.9,80,0.00,CLR,,0.00,WeatherDisplay:10.37,2013-07-16 10:31:00,
2013-07-16 11:36:00,66.4,60.0,29.71,SSW,202,9.2,9.2,80,0.00,CLR,,0.00,WeatherDisplay:10.37,2013-07-16 10:36:00,
2013-07-16 11:41:00,66.9,60.2,29.71,SSW,202,8.1,8.6,79,0.00,CLR,,0.00,WeatherDisplay:10.37,2013-07-16 10:41:00,
2013-07-16 11:46:00,67.3,60.2,29.71,SW,225,8.1,8.1,78,0.00,CLR,,0.00,WeatherDisplay:10.37,2013-07-16 10:46:00,
2013-07-16 11:51:00,67.3,60.2,29.71,SW,225,3.5,7.2,78,0.00,CLR,,0.00,WeatherDisplay:10.37,2013-07-16 10:51:00,
2013-07-16 11:56:00,67.3,60.2,29.70,WSW,248,6.9,6.9,78,0.00,CLR,,0.00,WeatherDisplay:10.37,2013-07-16 10:56:00,
2013-07-16 12:01:00,68.7,61.2,29.71,WSW,248,6.0,6.0,77,0.00,CLR,,0.00,WeatherDisplay:10.37,2013-07-16 11:01:00,
2013-07-16 12:06:00,68.7,61.2,29.71,WSW,248,5.8,5.8,77,0.00,CLR,,0.00,WeatherDisplay:10.37,2013-07-16 11:06:00,
2013-07-16 12:11:00,68.7,61.2,29.71,WSW,248,5.8,5.8,77,0.00,CLR,,0.00,WeatherDisplay:10.37,2013-07-16 11:11:00,
2013-07-16 12:16:00,69.4,61.5,29.70,WSW,248,5.8,5.8,76,0.00,CLR,,0.00,WeatherDisplay:10.37,2013-07-16 11:16:00,
2013-07-16 12:21:00,69.4,61.5,29.70,WNW,292,5.8,5.8,76,0.00,CLR,,0.00,WeatherDisplay:10.37,2013-07-16 11:21:00,
2013-07-16 12:26:00,69.6,61.3,29.70,SW,225,12.7,12.7,75,0.00,CLR,,0.00,WeatherDisplay:10.37,2013-07-16 11:26:00,
2013-07-16 12:31:00,70.0,61.7,29.70,East,90,12.7,12.7,75,0.00,CLR,,0.00,WeatherDisplay:10.37,2013-07-16 11:31:00,
2013-07-16 12:36:00,70.0,61.7,29.70,East,90,1.2,7.9,75,0.00,CLR,,0.00,WeatherDisplay:10.37,2013-07-16 11:36:00,
2013-07-16 12:41:00,70.3,61.3,29.70,SW,225,4.6,4.6,73,0.00,CLR,,0.00,WeatherDisplay:10.37,2013-07-16 11:41:00,
2013-07-16 12:46:00,70.5,61.1,29.70,WNW,292,10.4,10.4,72,0.00,CLR,,0.00,WeatherDisplay:10.37,2013-07-16 11:46:00,
2013-07-16 12:51:00,70.3,60.9,29.70,SSE,158,8.1,8.1,72,0.00,CLR,,0.00,WeatherDisplay:10.37,2013-07-16 11:51:00,
2013-07-16 12:56:00,70.0,60.1,29.70,West,270,8.1,8.1,71,0.00,CLR,,0.00,WeatherDisplay:10.37,2013-07-16 11:56:00,
2013-07-16 13:01:00,69.6,59.8,29.70,WSW,248,12.7,12.7,71,0.00,CLR,,0.00,WeatherDisplay:10.37,2013-07-16 12:01:00,
2013-07-16 13:06:00,68.9,59.1,29.70,SW,225,12.7,12.7,71,0.00,CLR,,0.00,WeatherDisplay:10.37,2013-07-16 12:06:00,
2013-07-16 13:11:00,68.5,59.2,29.70,WSW,248,6.9,6.9,72,0.00,CLR,,0.00,WeatherDisplay:10.37,2013-07-16 12:11:00,
2013-07-16 13:16:00,67.8,58.8,29.70,WSW,248,12.7,12.7,73,0.00,CLR,,0.00,WeatherDisplay:10.37,2013-07-16 12:16:00,
2013-07-16 13:21:00,67.8,58.8,29.70,WSW,248,12.7,12.7,73,0.00,CLR,,0.00,WeatherDisplay:10.37,2013-07-16 12:21:00,
2013-07-16 13:26:00,67.8,58.5,29.71,WSW,248,12.7,12.7,72,0.00,CLR,,0.00,WeatherDisplay:10.37,2013-07-16 12:26:00,
2013-07-16 13:31:00,67.3,57.9,29.71,South,180,12.7,12.7,72,0.00,CLR,,0.00,WeatherDisplay:10.37,2013-07-16 12:31:00,
2013-07-16 13:36:00,67.8,58.8,29.71,SW,225,9.2,9.2,73,0.00,CLR,,0.00,WeatherDisplay:10.37,2013-07-16 12:36:00,
2013-07-16 13:41:00,68.2,59.2,29.71,WNW,292,9.2,9.4,73,0.00,CLR,,0.00,WeatherDisplay:10.37,2013-07-16 12:41:00,
2013-07-16 13:46:00,68.7,59.7,29.71,WSW,248,9.2,9.2,73,0.00,CLR,,0.00,WeatherDisplay:10.37,2013-07-16 12:46:00,
2013-07-16 13:51:00,69.1,58.9,29.71,SSW,202,4.6,4.6,70,0.00,CLR,,0.00,WeatherDisplay:10.37,2013-07-16 12:51:00,
2013-07-16 13:56:00,68.7,58.5,29.71,WNW,292,4.6,4.6,70,0.00,CLR,,0.00,WeatherDisplay:10.37,2013-07-16 12:56:00,
2013-07-16 14:01:00,68.5,58.4,29.71,West,270,4.6,4.8,70,0.00,CLR,,0.00,WeatherDisplay:10.37,2013-07-16 13:01:00,
2013-07-16 14:06:00,68.4,58.2,29.70,ENE,68,3.5,3.5,70,0.00,CLR,,0.00,WeatherDisplay:10.37,2013-07-16 13:06:00,
2013-07-16 14:11:00,68.5,58.4,29.70,SW,225,2.3,2.5,70,0.00,CLR,,0.00,WeatherDisplay:10.37,2013-07-16 13:11:00,
2013-07-16 14:16:00,68.5,58.4,29.70,NW,315,6.9,6.9,70,0.00,CLR,,0.00,WeatherDisplay:10.37,2013-07-16 13:16:00,
2013-07-16 14:21:00,69.6,59.4,29.70,West,270,8.1,8.1,70,0.00,CLR,,0.00,WeatherDisplay:10.37,2013-07-16 13:21:00,
2013-07-16 14:26:00,70.0,59.3,29.70,SW,225,8.1,8.1,69,0.00,CLR,,0.00,WeatherDisplay:10.37,2013-07-16 13:26:00,
2013-07-16 14:31:00,70.3,59.7,29.70,West,270,8.1,8.1,69,0.00,CLR,,0.00,WeatherDisplay:10.37,2013-07-16 13:31:00,
2013-07-16 14:36:00,70.3,59.3,29.70,WNW,292,6.9,6.9,68,0.00,CLR,,0.00,WeatherDisplay:10.37,2013-07-16 13:36:00,
2013-07-16 14:41:00,70.3,59.3,29.70,SSW,202,11.5,11.5,68,0.00,CLR,,0.00,WeatherDisplay:10.37,2013-07-16 13:41:00,
2013-07-16 14:46:00,70.2,59.1,29.70,West,270,5.8,5.8,68,0.00,CLR,,0.00,WeatherDisplay:10.37,2013-07-16 13:46:00,
2013-07-16 14:51:00,70.2,59.1,29.70,WSW,248,3.5,4.8,68,0.00,CLR,,0.00,WeatherDisplay:10.37,2013-07-16 13:51:00,
2013-07-16 14:56:00,70.2,59.1,29.70,WSW,248,5.8,5.8,68,0.00,CLR,,0.00,WeatherDisplay:10.37,2013-07-16 13:56:00,
2013-07-16 15:01:00,70.3,59.3,29.70,SW,225,4.9,4.9,68,0.00,CLR,,0.00,WeatherDisplay:10.37,2013-07-16 14:01:00,
2013-07-16 15:06:00,70.3,59.3,29.70,SW,225,6.9,6.9,68,0.00,CLR,,0.00,WeatherDisplay:10.37,2013-07-16 14:06:00,
2013-07-16 15:11:00,70.3,58.9,29.70,ESE,112,6.9,6.9,67,0.00,CLR,,0.00,WeatherDisplay:10.37,2013-07-16 14:11:00,
2013-07-16 15:16:00,70.5,59.0,29.70,SW,225,5.8,5.8,67,0.00,CLR,,0.00,WeatherDisplay:10.37,2013-07-16 14:16:00,
2013-07-16 15:21:00,70.5,58.6,29.70,SSW,202,5.8,6.3,66,0.00,CLR,,0.00,WeatherDisplay:10.37,2013-07-16 14:21:00,
2013-07-16 15:26:00,70.5,58.6,29.70,SSW,202,5.8,6.3,66,0.00,CLR,,0.00,WeatherDisplay:10.37,2013-07-16 14:26:00,
2013-07-16 15:31:00,70.2,58.3,29.70,SW,225,6.9,6.9,66,0.00,CLR,,0.00,WeatherDisplay:10.37,2013-07-16 14:31:00,
2013-07-16 15:36:00,70.2,58.3,29.70,WSW,248,6.9,6.9,66,0.00,CLR,,0.00,WeatherDisplay:10.37,2013-07-16 14:36:00,
2013-07-16 15:41:00,70.0,58.1,29.70,SSW,202,6.9,6.9,66,0.00,CLR,,0.00,WeatherDisplay:10.37,2013-07-16 14:41:00,
2013-07-16 15:46:00,70.2,57.8,29.70,WNW,292,5.8,5.8,65,0.00,CLR,,0.00,WeatherDisplay:10.37,2013-07-16 14:46:00,
2013-07-16 15:51:00,70.2,57.8,29.69,West,270,4.6,4.7,65,0.00,CLR,,0.00,WeatherDisplay:10.37,2013-07-16 14:51:00,
2013-07-16 15:56:00,70.2,57.8,29.69,WSW,248,8.1,8.1,65,0.00,CLR,,0.00,WeatherDisplay:10.37,2013-07-16 14:56:00,
2013-07-16 16:01:00,70.3,58.0,29.70,SW,225,8.1,8.2,65,0.00,CLR,,0.00,WeatherDisplay:10.37,2013-07-16 15:01:00,
2013-07-16 16:06:00,70.3,58.0,29.70,SW,225,8.1,8.2,65,0.00,CLR,,0.00,WeatherDisplay:10.37,2013-07-16 15:06:00,
2013-07-16 16:11:00,70.5,58.6,29.69,SW,225,6.9,6.9,66,0.00,CLR,,0.00,WeatherDisplay:10.37,2013-07-16 15:11:00,
2013-07-16 16:16:00,70.5,58.6,29.69,SE,135,4.7,4.7,66,0.00,CLR,,0.00,WeatherDisplay:10.37,2013-07-16 15:16:00,
2013-07-16 16:21:00,70.7,58.8,29.69,WSW,248,4.6,4.6,66,0.00,CLR,,0.00,WeatherDisplay:10.37,2013-07-16 15:21:00,
2013-07-16 16:26:00,70.7,58.8,29.69,WSW,248,3.5,3.9,66,0.00,CLR,,0.00,WeatherDisplay:10.37,2013-07-16 15:26:00,
2013-07-16 16:31:00,70.7,58.8,29.69,SSW,202,6.9,6.9,66,0.00,CLR,,0.00,WeatherDisplay:10.37,2013-07-16 15:31:00,
2013-07-16 16:36:00,70.7,58.8,29.69,SSW,202,6.9,6.9,66,0.00,CLR,,0.00,WeatherDisplay:10.37,2013-07-16 15:36:00,
2013-07-16 16:41:00,70.3,58.4,29.69,SSW,202,8.0,8.0,66,0.00,CLR,,0.00,WeatherDisplay:10.37,2013-07-16 15:41:00,
2013-07-16 16:46:00,70.2,58.3,29.69,SSW,202,8.1,8.1,66,0.00,CLR,,0.00,WeatherDisplay:10.37,2013-07-16 15:46:00,
2013-07-16 16:51:00,70.0,58.1,29.69,ENE,68,4.6,4.6,66,0.00,CLR,,0.00,WeatherDisplay:10.37,2013-07-16 15:51:00,
2013-07-16 16:56:00,70.0,58.1,29.70,WSW,248,10.5,10.5,66,0.00,CLR,,0.00,WeatherDisplay:10.37,2013-07-16 15:56:00,
2013-07-16 17:01:00,69.8,57.9,29.70,WSW,248,10.4,10.4,66,0.00,CLR,,0.00,WeatherDisplay:10.37,2013-07-16 16:01:00,
2013-07-16 17:06:00,69.8,57.9,29.70,NW,315,10.4,10.4,66,0.00,CLR,,0.00,WeatherDisplay:10.37,2013-07-16 16:06:00,
2013-07-16 17:11:00,69.8,57.9,29.70,SW,225,5.8,5.8,66,0.00,CLR,,0.00,WeatherDisplay:10.37,2013-07-16 16:11:00,
2013-07-16 17:16:00,69.8,57.9,29.70,West,270,3.5,3.5,66,0.00,CLR,,0.00,WeatherDisplay:10.37,2013-07-16 16:16:00,
2013-07-16 17:21:00,70.0,58.1,29.69,SW,225,3.5,3.5,66,0.00,CLR,,0.00,WeatherDisplay:10.37,2013-07-16 16:21:00,
2013-07-16 17:26:00,70.0,58.1,29.69,WNW,292,5.8,5.8,66,0.00,CLR,,0.00,WeatherDisplay:10.37,2013-07-16 16:26:00,
2013-07-16 17:31:00,70.0,58.1,29.70,West,270,6.9,6.9,66,0.00,CLR,,0.00,WeatherDisplay:10.37,2013-07-16 16:31:00,
2013-07-16 17:36:00,69.8,57.9,29.70,West,270,8.1,8.1,66,0.00,CLR,,0.00,WeatherDisplay:10.37,2013-07-16 16:36:00,
2013-07-16 17:41:00,70.0,58.1,29.70,WSW,248,3.5,6.9,66,0.00,CLR,,0.00,WeatherDisplay:10.37,2013-07-16 16:41:00,
2013-07-16 17:46:00,70.0,58.1,29.70,SW,225,6.9,6.9,66,0.00,CLR,,0.00,WeatherDisplay:10.37,2013-07-16 16:46:00,
2013-07-16 17:51:00,69.8,57.9,29.70,SSW,202,3.5,5.1,66,0.00,CLR,,0.00,WeatherDisplay:10.37,2013-07-16 16:51:00,
2013-07-16 17:56:00,69.8,57.9,29.70,SSW,202,3.5,5.1,66,0.00,CLR,,0.00,WeatherDisplay:10.37,2013-07-16 16:56:00,
2013-07-16 18:01:00,69.4,57.6,29.70,West,270,4.6,4.6,66,0.00,CLR,,0.00,WeatherDisplay:10.37,2013-07-16 17:01:00,
2013-07-16 18:06:00,69.4,57.6,29.70,SSW,202,4.6,4.6,66,0.00,CLR,,0.00,WeatherDisplay:10.37,2013-07-16 17:06:00,
2013-07-16 18:11:00,69.4,57.6,29.70,SSW,202,4.6,4.6,66,0.00,CLR,,0.00,WeatherDisplay:10.37,2013-07-16 17:11:00,
2013-07-16 18:16:00,69.1,56.8,29.70,West,270,3.5,4.4,65,0.00,CLR,,0.00,WeatherDisplay:10.37,2013-07-16 17:16:00,
2013-07-16 18:21:00,69.1,56.8,29.70,WSW,248,3.5,3.5,65,0.00,CLR,,0.00,WeatherDisplay:10.37,2013-07-16 17:21:00,
2013-07-16 18:26:00,68.9,56.6,29.70,WSW,248,4.6,4.6,65,0.00,CLR,,0.00,WeatherDisplay:10.37,2013-07-16 17:26:00,
2013-07-16 18:31:00,68.9,56.6,29.70,SE,135,1.2,3.3,65,0.00,CLR,,0.00,WeatherDisplay:10.37,2013-07-16 17:31:00,
2013-07-16 18:36:00,68.5,55.9,29.71,West,270,5.8,5.8,64,0.00,CLR,,0.00,WeatherDisplay:10.37,2013-07-16 17:36:00,
2013-07-16 18:41:00,68.5,55.9,29.70,ESE,112,5.8,5.8,64,0.00,CLR,,0.00,WeatherDisplay:10.37,2013-07-16 17:41:00,
2013-07-16 18:46:00,68.5,55.9,29.70,ESE,112,4.6,5.5,64,0.00,CLR,,0.00,WeatherDisplay:10.37,2013-07-16 17:46:00,
2013-07-16 18:51:00,68.5,55.9,29.70,West,270,4.6,4.9,64,0.00,CLR,,0.00,WeatherDisplay:10.37,2013-07-16 17:51:00,
2013-07-16 18:56:00,68.2,56.0,29.70,WSW,248,5.8,5.8,65,0.00,CLR,,0.00,WeatherDisplay:10.37,2013-07-16 17:56:00,
2013-07-16 19:01:00,67.8,55.6,29.70,WSW,248,4.6,4.6,65,0.00,CLR,,0.00,WeatherDisplay:10.37,2013-07-16 18:01:00,
2013-07-16 19:06:00,67.8,56.0,29.70,SW,225,9.2,9.2,66,0.00,CLR,,0.00,WeatherDisplay:10.37,2013-07-16 18:06:00,
2013-07-16 19:11:00,67.8,55.6,29.70,NW,315,9.2,9.2,65,0.00,CLR,,0.00,WeatherDisplay:10.37,2013-07-16 18:11:00,
2013-07-16 19:16:00,67.8,55.6,29.70,SSW,202,4.6,4.6,65,0.00,CLR,,0.00,WeatherDisplay:10.37,2013-07-16 18:16:00,
2013-07-16 19:21:00,67.8,56.0,29.70,West,270,4.6,4.9,66,0.00,CLR,,0.00,WeatherDisplay:10.37,2013-07-16 18:21:00,
2013-07-16 19:26:00,67.6,55.9,29.70,WNW,292,4.6,4.6,66,0.00,CLR,,0.00,WeatherDisplay:10.37,2013-07-16 18:26:00,
2013-07-16 19:31:00,67.6,55.9,29.70,West,270,3.5,3.5,66,0.00,CLR,,0.00,WeatherDisplay:10.37,2013-07-16 18:31:00,
2013-07-16 19:36:00,67.3,55.5,29.70,SW,225,6.9,6.9,66,0.00,CLR,,0.00,WeatherDisplay:10.37,2013-07-16 18:36:00,
2013-07-16 19:41:00,67.3,55.5,29.70,West,270,6.9,6.9,66,0.00,CLR,,0.00,WeatherDisplay:10.37,2013-07-16 18:41:00,
2013-07-16 19:46:00,67.3,55.5,29.70,West,270,3.5,6.3,66,0.00,CLR,,0.00,WeatherDisplay:10.37,2013-07-16 18:46:00,
2013-07-16 19:51:00,66.9,55.2,29.70,WSW,248,5.8,5.8,66,0.00,CLR,,0.00,WeatherDisplay:10.37,2013-07-16 18:51:00,
2013-07-16 19:56:00,66.7,55.0,29.71,WSW,248,5.8,5.8,66,0.00,CLR,,0.00,WeatherDisplay:10.37,2013-07-16 18:56:00,
2013-07-16 20:01:00,66.7,55.0,29.71,SW,225,3.5,3.5,66,0.00,CLR,,0.00,WeatherDisplay:10.37,2013-07-16 19:01:00,
2013-07-16 20:06:00,66.6,55.7,29.71,SW,225,3.5,3.5,68,0.00,CLR,,0.00,WeatherDisplay:10.37,2013-07-16 19:06:00,
2013-07-16 20:11:00,66.7,55.8,29.71,WSW,248,5.1,5.1,68,0.00,CLR,,0.00,WeatherDisplay:10.37,2013-07-16 19:11:00,
2013-07-16 20:16:00,66.4,55.5,29.71,SW,225,4.6,4.6,68,0.00,CLR,,0.00,WeatherDisplay:10.37,2013-07-16 19:16:00,
2013-07-16 20:21:00,66.4,55.5,29.71,NNW,338,4.0,4.0,68,0.00,CLR,,0.00,WeatherDisplay:10.37,2013-07-16 19:21:00,
2013-07-16 20:26:00,66.4,55.5,29.71,West,270,3.5,3.5,68,0.00,CLR,,0.00,WeatherDisplay:10.37,2013-07-16 19:26:00,
2013-07-16 20:31:00,65.8,55.0,29.72,South,180,2.3,2.5,68,0.00,CLR,,0.00,WeatherDisplay:10.37,2013-07-16 19:31:00,
2013-07-16 20:36:00,65.8,55.0,29.72,South,180,2.3,2.5,68,0.00,CLR,,0.00,WeatherDisplay:10.37,2013-07-16 19:36:00,
2013-07-16 20:42:00,65.3,54.9,29.71,West,270,1.2,1.8,69,0.00,CLR,,0.00,WeatherDisplay:10.37,2013-07-16 19:42:00,
2013-07-16 20:47:00,65.1,55.1,29.71,SW,225,2.3,2.3,70,0.00,CLR,,0.00,WeatherDisplay:10.37,2013-07-16 19:47:00,
2013-07-16 20:52:00,65.1,55.1,29.71,SW,225,2.3,2.3,70,0.00,CLR,,0.00,WeatherDisplay:10.37,2013-07-16 19:52:00,
2013-07-16 20:57:00,64.6,54.6,29.71,SSW,202,2.3,2.4,70,0.00,CLR,,0.00,WeatherDisplay:10.37,2013-07-16 19:57:00,
2013-07-16 21:02:00,64.2,54.6,29.72,SW,225,2.5,2.5,71,0.00,CLR,,0.00,WeatherDisplay:10.37,2013-07-16 20:02:00,
2013-07-16 21:07:00,64.2,54.6,29.72,SW,225,2.3,2.5,71,0.00,CLR,,0.00,WeatherDisplay:10.37,2013-07-16 20:07:00,
2013-07-16 21:12:00,64.0,54.4,29.72,SW,225,2.3,2.3,71,0.00,CLR,,0.00,WeatherDisplay:10.37,2013-07-16 20:12:00,
2013-07-16 21:17:00,64.0,54.8,29.72,WSW,248,6.9,6.9,72,0.00,CLR,,0.00,WeatherDisplay:10.37,2013-07-16 20:17:00,
2013-07-16 21:22:00,63.9,54.7,29.72,SW,225,3.5,5.0,72,0.00,CLR,,0.00,WeatherDisplay:10.37,2013-07-16 20:22:00,
2013-07-16 21:27:00,63.7,54.5,29.73,SW,225,3.5,3.5,72,0.00,CLR,,0.00,WeatherDisplay:10.37,2013-07-16 20:27:00,
2013-07-16 21:32:00,63.5,54.3,29.72,SW,225,3.5,3.9,72,0.00,CLR,,0.00,WeatherDisplay:10.37,2013-07-16 20:32:00,
2013-07-16 21:37:00,63.3,54.1,29.72,WSW,248,3.5,3.6,72,0.00,CLR,,0.00,WeatherDisplay:10.37,2013-07-16 20:37:00,
2013-07-16 21:42:00,63.1,54.0,29.73,SSW,202,1.2,1.3,72,0.00,CLR,,0.00,WeatherDisplay:10.37,2013-07-16 20:42:00,
2013-07-16 21:46:00,63.0,54.2,29.73,SSW,202,1.2,1.2,73,0.00,CLR,,0.00,WeatherDisplay:10.37,2013-07-16 20:46:00,
2013-07-16 21:51:00,63.0,54.2,29.73,South,180,3.5,3.5,73,0.00,CLR,,0.00,WeatherDisplay:10.37,2013-07-16 20:51:00,
2013-07-16 21:57:00,62.6,53.8,29.73,West,270,3.5,3.5,73,0.00,CLR,,0.00,WeatherDisplay:10.37,2013-07-16 20:57:00,
2013-07-16 22:02:00,62.6,54.2,29.73,SE,135,2.3,2.3,74,0.00,CLR,,0.00,WeatherDisplay:10.37,2013-07-16 21:02:00,
2013-07-16 22:07:00,62.6,54.2,29.73,SE,135,2.3,2.3,74,0.00,CLR,,0.00,WeatherDisplay:10.37,2013-07-16 21:07:00,
2013-07-16 22:12:00,62.4,54.0,29.73,SSE,158,2.3,2.3,74,0.00,CLR,,0.00,WeatherDisplay:10.37,2013-07-16 21:12:00,
2013-07-16 22:17:00,62.4,54.4,29.73,WSW,248,2.3,2.3,75,0.00,CLR,,0.00,WeatherDisplay:10.37,2013-07-16 21:17:00,
2013-07-16 22:22:00,62.4,54.4,29.73,South,180,1.2,1.2,75,0.00,CLR,,0.00,WeatherDisplay:10.37,2013-07-16 21:22:00,
2013-07-16 22:27:00,62.4,54.4,29.73,SW,225,1.2,1.2,75,0.00,CLR,,0.00,WeatherDisplay:10.37,2013-07-16 21:27:00,
2013-07-16 22:32:00,62.4,54.4,29.73,SW,225,4.6,4.6,75,0.00,CLR,,0.00,WeatherDisplay:10.37,2013-07-16 21:32:00,
2013-07-16 22:37:00,62.4,54.4,29.73,SSW,202,4.6,4.6,75,0.00,CLR,,0.00,WeatherDisplay:10.37,2013-07-16 21:37:00,
2013-07-16 22:42:00,62.4,54.4,29.73,WSW,248,4.6,4.6,75,0.00,CLR,,0.00,WeatherDisplay:10.37,2013-07-16 21:42:00,
2013-07-16 22:47:00,62.4,54.4,29.73,South,180,4.6,4.6,75,0.00,CLR,,0.00,WeatherDisplay:10.37,2013-07-16 21:47:00,
2013-07-16 22:52:00,62.4,54.4,29.73,WSW,248,3.5,3.5,75,0.00,CLR,,0.00,WeatherDisplay:10.37,2013-07-16 21:52:00,
2013-07-16 22:57:00,62.4,54.4,29.73,South,180,3.5,3.7,75,0.00,CLR,,0.00,WeatherDisplay:10.37,2013-07-16 21:57:00,
2013-07-16 23:02:00,62.1,54.0,29.73,South,180,0.0,1.7,75,0.00,CLR,,0.00,WeatherDisplay:10.37,2013-07-16 22:02:00,
2013-07-16 23:07:00,62.1,54.0,29.73,SSW,202,0.0,0.0,75,0.00,CLR,,0.00,WeatherDisplay:10.37,2013-07-16 22:07:00,
2013-07-16 23:12:00,61.9,53.9,29.73,SSW,202,0.0,0.0,75,0.00,CLR,,0.00,WeatherDisplay:10.37,2013-07-16 22:12:00,
2013-07-16 23:17:00,61.9,53.9,29.73,SW,225,2.3,2.3,75,0.00,CLR,,0.00,WeatherDisplay:10.37,2013-07-16 22:17:00,
2013-07-16 23:22:00,61.9,53.9,29.73,SW,225,2.3,2.3,75,0.00,CLR,,0.00,WeatherDisplay:10.37,2013-07-16 22:22:00,
2013-07-16 23:27:00,61.5,53.9,29.73,WSW,248,0.0,1.3,76,0.00,CLR,,0.00,WeatherDisplay:10.37,2013-07-16 22:27:00,
2013-07-16 23:32:00,61.5,53.9,29.73,SW,225,1.2,1.2,76,0.00,CLR,,0.00,WeatherDisplay:10.37,2013-07-16 22:32:00,
2013-07-16 23:37:00,61.2,53.5,29.73,SW,225,1.2,1.3,76,0.00,CLR,,0.00,WeatherDisplay:10.37,2013-07-16 22:37:00,
2013-07-16 23:42:00,61.0,53.4,29.74,SW,225,1.2,1.4,76,0.00,CLR,,0.00,WeatherDisplay:10.37,2013-07-16 22:42:00,
2013-07-16 23:47:00,60.6,53.4,29.74,WSW,248,3.5,3.5,77,0.00,CLR,,0.00,WeatherDisplay:10.37,2013-07-16 22:47:00,
2013-07-16 23:52:00,60.6,53.4,29.74,South,180,3.5,3.5,77,0.00,CLR,,0.00,WeatherDisplay:10.37,2013-07-16 22:52:00,
2013-07-16 23:57:00,60.6,53.4,29.74,South,180,0.0,2.0,77,0.00,CLR,,0.00,WeatherDisplay:10.37,2013-07-16 22:57:00,